Location: The D'Auria's Ocala Star Observatory
(29.0276°N, 82.1742°W)
Time: 06:48:14
(UTC-04:00)

Daily predictions for brighter satellites

Satellite Brightness Start Highest point End
(mag) Time Altitude Azimuth Time Altitude Azimuth Time Altitude Azimuth
Atlas 2A Centaur Rocket 4.5 20:38:23 10° W 20:44:05 76° S 21:25:03 10° ESE
Cosmos 1607 4.2 20:46:44 10° NNW 20:53:01 59° ENE 20:59:05 10° SE
Cosmos 1626 Rocket 4.1 20:51:08 10° SSW 20:55:34 67° W 20:59:59 10° N
Cosmos 1655 Rocket 4.0 20:50:17 10° N 20:56:30 74° E 21:02:42 10° S
Cosmos 1707 2.8 20:59:37 10° S 21:03:28 82° W 21:07:20 10° N
BREEZE-M R/B 2.7 21:03:04 10° NW 21:06:20 42° NE 21:08:34 11° ESE
ERS-2 3.7 21:06:19 10° ESE 21:09:07 21° ENE 21:11:54 10° NNE
Cosmos 1238 Rocket 3.8 21:09:05 11° SE 21:10:59 17° E 21:13:00 10° NE
Cosmos 1420 Rocket 4.2 21:13:01 10° N 21:18:05 54° ENE 21:22:59 11° SSE
Resurs 1-3 3.9 21:14:07 10° SSE 21:18:20 49° ENE 21:22:34 10° N
Lacrosse 5 4.2 21:15:12 10° WSW 21:19:31 28° NW 21:23:51 10° NNE
Cosmos 1452 Rocket 3.6 21:14:26 10° N 21:19:42 66° ENE 21:24:55 10° SSE
Cosmos 1939 Rocket 2.8 21:15:46 10° SSE 21:19:50 80° E 21:23:53 10° N
Cosmos 1812 Rocket 3.5 21:16:45 10° N 21:21:08 83° E 21:25:31 10° S
Cosmos 2278 Rocket 3.6 21:20:59 13° SE 21:23:33 17° E 21:27:03 10° ENE
Cosmos 1953 Rocket 3.9 21:19:38 10° SSE 21:23:45 43° E 21:27:54 10° NNE
Cosmos 1943 3.7 21:20:39 10° NNW 21:26:12 59° WSW 21:31:41 10° S
GPS 2-18 Rocket1 4.5 21:24:07 10° SW 21:27:05 22° S 21:28:46 16° SSE
Cosmos 1758 Rocket 3.5 21:24:16 10° S 21:28:40 66° E 21:33:04 10° NNE
Hubble Space Telescope 3.0 21:28:22 10° WSW 21:30:27 14° SSW 21:32:33 10° S
Cosmos 1315 Rocket 2.9 21:32:08 10° S 21:36:10 85° W 21:40:16 10° N
Cosmos 1844 Rocket 2.7 21:31:40 10° SSW 21:37:20 89° WNW 21:43:01 10° NNE
YAOGAN 6 3.9 21:35:51 10° SSW 21:39:08 37° W 21:42:25 10° NNW
Cosmos 494 Rocket 4.0 21:34:27 10° S 21:39:33 57° ESE 21:44:42 10° NNE
Aurora 2 Rocket 3.5 21:35:27 10° WSW 21:40:38 59° S 21:47:01 14° E
NOAA 11 4.1 21:38:27 12° SSE 21:43:27 78° ENE 21:48:52 10° N
Cosmos 1953 4.4 21:40:28 10° NNW 21:43:50 26° W 21:47:12 10° SSW
Cosmos 1461 3.5 21:42:30 10° S 21:46:41 39° ESE 21:51:03 10° NE
Cosmos 1844 3.6 21:41:16 10° SSW 21:46:56 83° ESE 21:52:40 10° NNE
Cosmos 921 Rocket 4.4 21:43:52 10° NNE 21:47:35 25° ENE 21:48:59 22° E
Resurs 01 Rocket 1.8 21:44:47 12° S 21:48:50 72° W 21:53:15 10° NNW
H-2A R/B 3.2 21:47:32 21° ESE 21:49:50 29° ENE 21:54:24 10° NNE
ATLAS 2AS CENTAUR R/B 3.7 21:42:23 10° SW 21:49:52 60° WNW 21:57:51 10° NNE
Cosmos 1825 Rocket 4.5 21:48:11 10° SSW 21:52:30 50° W 21:56:50 10° N
ATLAS 5 CENTAUR R/B 2.9 21:53:56 21° E 21:53:56 21° E 21:56:31 10° ENE
SAR-Lupe-3 4.5 21:49:40 10° NNE 21:53:15 89° WNW 21:56:26 13° SSW
Iridium 4 Rocket 3.8 21:51:49 10° S 21:57:32 76° W 22:02:51 10° N
USA 186 4.3 21:55:45 10° SW 21:58:07 19° W 22:00:24 10° NW
OAO 3 Rocket 4.2 21:56:06 10° WNW 22:00:51 44° N 22:04:34 16° ENE
Cosmos 1437 2.7 21:58:41 10° N 22:01:48 57° E 22:02:07 53° ESE
SEDSat Delta rocket 3.3 21:56:33 10° WSW 22:02:13 81° SSE 22:05:50 19° ENE
Cosmos 220 Rocket 3.9 22:03:07 28° S 22:05:08 58° ESE 22:09:17 10° NNE
ERS-1 Rocket 4.0 22:06:44 26° E 22:07:56 29° ENE 22:12:15 10° NNE
Meteor 1-24 Rocket 4.2 22:03:01 10° SSW 22:08:58 66° W 22:14:58 10° N
Cosmos 1346 Rocket 2.7 22:07:11 10° N 22:11:13 70° E 22:12:14 47° SSE
USA 215 3.4 22:14:21 30° ESE 22:17:45 63° NE 22:24:12 10° NNW
OAO 3 Copernicus 4.2 22:14:04 10° WNW 22:19:08 75° SSW 22:20:34 46° SE
Cosmos 1244 Rocket 4.4 22:14:45 10° N 22:21:07 78° E 22:24:16 32° SSE
Cosmos 2084 3.0 22:20:30 10° NNW 22:24:20 87° WSW 22:24:40 74° SSE
MetOp-B 4.1 22:22:42 42° SE 22:24:26 65° ENE 22:29:44 10° N
NOSS 2-2 (E) 3.8 22:26:04 43° ENE 22:26:04 43° ENE 22:28:58 10° NE
Cosmos 2251 Rocket 3.4 22:22:00 25° S 22:25:12 78° ESE 22:30:32 10° NNE
PSLV R/B 4.1 22:22:35 10° WSW 22:25:35 44° NNW 22:26:16 36° N
Cosmos 1340 3.8 22:22:08 10° NNE 22:24:49 30° NE 22:24:49 30° NE
Cosmos 1908 3.1 22:21:55 10° N 22:25:46 67° E 22:25:48 67° E
NOSS 3-4 (A) 3.3 22:21:30 10° SSW 22:27:39 86° ESE 22:33:55 10° NNE
NOSS 3-4 (C) 3.3 22:21:37 10° SSW 22:27:44 85° ESE 22:34:00 10° NNE
DMSP B5D2-2 4.0 22:22:49 10° NNE 22:27:59 60° ESE 22:29:08 48° SSE
Delta 198 4.2 22:23:48 10° WSW 22:30:05 58° S 22:31:13 49° SE
H-2A R/B (2) 3.7 22:30:01 34° SSE 22:31:05 35° SE 22:51:52 10° ENE
Cosmos-2242 3.4 22:28:52 10° NNW 22:33:12 61° W 22:34:28 41° SSW
SL-08 RB Rocket 3.6 22:33:08 60° SSE 22:33:58 82° ENE 22:38:38 10° N
Palapa 6 Rocket 4.2 22:29:16 10° WSW 22:33:58 36° S 22:33:58 36° S
Cosmos 1674 3.9 22:32:34 24° SW 22:34:18 40° W 22:37:56 10° N
ASC 2 Rocket 3.9 22:31:01 10° WSW 22:36:47 43° S 22:36:47 43° S
Helios 1A 4.3 22:37:59 28° NE 22:37:59 28° NE 22:40:54 10° NNE
Meteor 2-10 4.2 22:33:00 10° N 22:38:28 61° E 22:39:21 53° ESE
Helios 1B rocket 4.1 22:37:01 10° NNE 22:38:53 23° NE 22:38:53 23° NE
S3M 4.0 22:40:34 30° S 22:43:54 83° W 22:50:20 10° N
Cosmos 1726 2.7 22:42:50 10° N 22:45:50 55° N 22:45:50 55° N
SPOT 5 3.1 22:54:57 58° ENE 22:54:57 58° ENE 23:00:01 10° N
Meteor 2-1 Rocket 4.5 22:49:57 10° NNW 22:55:49 68° W 22:57:26 47° SSW
NOSS 2-2 (D) 4.3 22:57:20 42° N 22:57:20 42° N 23:00:08 10° NNE
Cosmos 1842 Rocket 3.8 22:53:15 10° N 22:56:55 62° N 22:56:55 62° N
ARGOS 4.1 22:58:58 32° SW 23:00:45 41° W 23:05:52 10° NNW
Cosmos 2278 Rocket 3.1 23:02:40 15° SW 23:07:08 47° WNW 23:12:36 10° N
ATLAS 3B R/B 2.4 23:07:11 10° NNW 23:13:48 83° ENE 23:14:24 74° SE
Cosmos 1375 Rocket 4.4 23:10:31 10° NNW 23:17:06 81° ENE 23:17:30 77° ESE
Cosmos 883 Rocket 4.4 23:19:20 68° SW 23:20:05 77° W 23:26:19 10° N
USA 238 DEB 3.9 23:13:40 10° NW 23:20:46 66° WSW 23:21:54 58° SSW
USA 238 3.9 23:13:46 10° NW 23:20:53 66° WSW 23:21:59 59° SSW
Cosmos 2221 3.8 23:18:35 10° N 23:21:10 36° N 23:21:10 36° N
Landsat 7 4.4 23:25:42 54° NNW 23:25:42 54° NNW 23:29:23 10° NNW
SPOT 1/Viking Rocket 3.9 23:29:41 58° WNW 23:29:41 58° WNW 23:34:10 10° NNW
H-2A R/B 3.7 23:28:09 24° WSW 23:29:07 26° W 23:33:31 10° NW
Cosmos 2315 Rocket 3.9 23:29:38 87° WSW 23:29:42 87° W 23:36:04 10° N
NOSS 3-2 (A) 4.0 23:24:03 10° NNW 23:32:00 89° WSW 23:33:11 69° SSE
Aureole 3 Rocket 4.2 23:31:28 74° S 23:32:14 87° E 23:38:23 10° N
Aurora 2 Rocket 4.0 23:28:01 10° W 23:33:34 56° SW 23:33:34 56° SW
COSMOS 2406 4.2 23:30:11 10° NW 23:35:25 37° WSW 23:35:28 37° WSW
ATLAS 5 CENTAUR R/B 3.8 23:35:18 17° W 23:37:24 24° NW 23:41:11 10° N
Terra 3.0 23:45:46 41° NNW 23:45:46 41° NNW 23:48:50 10° NNW
Cosmos 2297 4.3 23:53:01 52° NW 23:53:01 52° NW 23:58:11 10° N
